Flag for Germany Weather past 2 weeks in Rheinfelden (Baden), Baden-Württemberg, Germany

Now
52 °F

Passing clouds.


Feels Like: 52 °F
Forecast: 46 / 69 °F
Wind: No wind

Location: Bale-Mulhouse

Current Time: Aug 20, 2014 at 6:59:54 AM

Latest Report: Aug 20, 2014 at 6:30 AM


Visibility: N/A

Pressure: 30.04 "Hg

Humidity: 94%

Dew point: 50 °F

Location of Rheinfelden (Baden)Location

Historic Weather in Rheinfelden (Baden) — Graph

°F

Rheinfelden (Baden) temperature yesterday

Maximum temperature yesterday: 70 °F (at 2:00 PM)
Minimum temperature yesterday: 55 °F (at 4:30 AM)
Average temperature yesterday: 62 °F

Past Weeks' High & Low Weather Summary

 TemperatureHumidityPressure
High82 °F (Aug 8, 4:00 PM)100% (Aug 5, 6:00 AM)30.18 "Hg (Aug 5, 6:00 AM)
Low50 °F (Aug 17, 4:30 AM)43% (Aug 19, 5:00 PM)29.68 "Hg (Aug 13, 9:00 AM)
Average64 °F78%29.98 "Hg
* Reported Aug 5 6:00 AM — Aug 20 6:00 AM, Rheinfelden (Baden), Weather by CustomWeather, © 2014

Note: Actual official high and low records may vary slightly from our data, if they occured in-between our weather recording intervals... More about our weather records

Advertising

Rheinfelden (Baden) weather history for previous 24 hours

 ConditionsComfort  
Time TempWeatherWind HumidityBarometerVisibility
6:00 AM
Aug 20
52 °FPartly cloudy.No wind94%30.04 "HgN/A
5:30 AM52 °FPassing clouds.3 mph94%30.04 "HgN/A
5:00 AM50 °FPassing clouds.2 mph94%30.04 "HgN/A
4:30 AM52 °FPassing clouds.6 mph94%30.04 "HgN/A
4:00 AM52 °FPassing clouds.3 mph94%30.04 "HgN/A
3:30 AM52 °FClear.3 mph94%30.04 "HgN/A
3:00 AM54 °FClear.3 mph88%30.01 "HgN/A
2:30 AM55 °FClear.5 mph88%30.01 "HgN/A
2:00 AM55 °FClear.3 mph88%30.04 "HgN/A
1:30 AM57 °FClear.3 mph82%30.04 "HgN/A
1:00 AM57 °FClear.3 mph77%30.04 "HgN/A
12:30 AM59 °FClear.7 mph72%30.04 "HgN/A
12:00 AM59 °FClear.6 mph72%30.01 "Hg10 mi
11:30 PM
Aug 19
59 °FClear.5 mph77%30.01 "Hg10 mi
11:00 PM59 °FClear.5 mph77%30.01 "Hg10 mi
10:30 PM59 °FClear.3 mph77%30.01 "Hg10 mi
10:00 PM61 °FClear.5 mph72%30.01 "Hg10 mi
9:30 PM61 °FSunny.5 mph72%29.98 "Hg10 mi
9:00 PM61 °FSunny.3 mph72%29.98 "Hg10 mi
8:30 PM63 °FSunny.6 mph64%29.98 "Hg10 mi
8:00 PM66 °FPassing clouds.7 mph49%29.95 "HgN/A
7:30 PM66 °FPassing clouds.9 mph49%29.95 "HgN/A
7:00 PM68 °FPassing clouds.9 mph46%29.95 "HgN/A
6:30 PM68 °FPassing clouds.9 mph49%29.95 "HgN/A
6:00 PM70 °FPassing clouds.12 mph43%29.95 "HgN/A
5:30 PM70 °FPassing clouds.12 mph46%29.95 "HgN/A
5:00 PM70 °FPassing clouds.10 mph43%29.95 "HgN/A
4:30 PM70 °FPassing clouds.9 mph50%29.95 "HgN/A
4:00 PM70 °FPassing clouds.13 mph46%29.95 "HgN/A
3:30 PM68 °FScattered clouds.9 mph49%29.95 "HgN/A
3:06 PM70 °FScattered clouds.9 mph50%29.95 "HgN/A
2:30 PM68 °FPassing clouds.12 mph49%29.95 "HgN/A
2:00 PM70 °FScattered clouds.9 mph50%29.95 "HgN/A
1:30 PM68 °FScattered clouds.8 mph53%29.95 "HgN/A
1:00 PM68 °FScattered clouds.9 mph56%29.95 "HgN/A
12:30 PM68 °FPartly sunny.8 mph53%29.95 "HgN/A
12:00 PM66 °FBroken clouds.8 mph56%29.95 "HgN/A
11:30 AM66 °FScattered clouds.8 mph64%29.95 "HgN/A
11:00 AM66 °FScattered clouds.8 mph64%29.95 "HgN/A
10:30 AM64 °FScattered clouds.3 mph68%29.95 "HgN/A
10:00 AM63 °FScattered clouds.2 mph73%29.95 "HgN/A
9:30 AM61 °FPartly sunny.2 mph83%29.95 "HgN/A
9:00 AM59 °FScattered clouds.2 mph88%29.95 "HgN/A
8:30 AM59 °FScattered clouds.1 mph88%29.92 "HgN/A
8:00 AM59 °FScattered clouds.2 mph88%29.92 "HgN/A
7:30 AM57 °FBroken clouds.3 mph94%29.92 "HgN/A
7:00 AM55 °FPassing clouds.2 mph100%29.92 "HgN/A
6:30 AM57 °FClear.2 mph94%29.92 "Hg10 mi
6:00 AM55 °FClear.2 mph94%29.92 "Hg10 mi
Weather by CustomWeather, © 2014

See weather overviewHow to use our weather pages